This is the latest recevied weather packets stored in our database for station/object DM5EI-L4. If no packets are shown the sender has not sent any weather packets the latest 10 day(s).
| Time | Temp. | Humidity | Pressure | Rain* | Wind** | Luminosity | Snow |
|---|---|---|---|---|---|---|---|
| 1777655322 | 25° C | 92% | 1024 hPa | - | - | - | - |
| 1777654421 | 27.22° C | 89% | 1024 hPa | - | - | - | - |
| 1777653520 | 28.89° C | 88% | 1024 hPa | - | - | - | - |
| 1777652619 | 29.44° C | 89% | 1024 hPa | - | - | - | - |
| 1777651718 | 30° C | 89% | 1024 hPa | - | - | - | - |
| 1777650817 | 30° C | 90% | 1024 hPa | - | - | - | - |
| 1777649916 | 30° C | 89% | 1025 hPa | - | - | - | - |
| 1777649015 | 29.44° C | 90% | 1025 hPa | - | - | - | - |
| 1777648113 | 29.44° C | 90% | 1025 hPa | - | - | - | - |
| 1777647212 | 28.89° C | 91% | 1025 hPa | - | - | - | - |
| 1777646311 | 28.33° C | 90% | 1025 hPa | - | - | - | - |
| 1777645410 | 28.33° C | 91% | 1025 hPa | - | - | - | - |
| 1777644509 | 28.89° C | 92% | 1026 hPa | - | - | - | - |
| 1777643608 | 28.33° C | 92% | 1026 hPa | - | - | - | - |
| 1777642707 | 28.33° C | 93% | 1026 hPa | - | - | - | - |
| 1777641806 | 27.78° C | 96% | 1026 hPa | - | - | - | - |
| 1777640904 | 26.11° C | 98% | 1027 hPa | - | - | - | - |
| 1777640003 | 25° C | 98% | 1027 hPa | - | - | - | - |
| 1777639102 | 25° C | 97% | 1027 hPa | - | - | - | - |
| 1777638201 | 24.44° C | 96% | 1027 hPa | - | - | - | - |
| 1777637300 | 23.89° C | 98% | 1027 hPa | - | - | - | - |
| 1777636399 | 23.33° C | 98% | 1028 hPa | - | - | - | - |
| 1777635498 | 23.33° C | 97% | 1028 hPa | - | - | - | - |
| 1777634597 | 22.78° C | 97% | 1028 hPa | - | - | - | - |
| 1777633696 | 23.33° C | 96% | 1028 hPa | - | - | - | - |
* Rain since midnight (hover to see other rain measurements)
** Current wind speed in m/s (hover to see current wind gust speed)